Location: Newark
(32.9533°N, 113.4900°W)
Time: 02:13:10
(UTC+00:00)

N. Korean satellite - Pass Details

Date: 21 March 2019
Orbit: 457 x 508 km, 97.2° (Epoch: 18 April)

Event Time Altitude Azimuth Distance (km) Brightness Sun altitude
Rises 12:58:46 0° 27° (NNE) 2,523 10.7 -8.8°
Reaches altitude 10° 13:01:09 10° 43° (NE) 1,651 10.0 -8.3°
Maximum altitude 13:03:59 22° 96° (E) 1,081 9.5 -7.7°
Drops below altitude 10° 13:06:51 10° 150° (SSE) 1,665 9.6 -7.1°
Sets 13:09:15 0° 165° (SSE) 2,551 10.4 -6.6°
